Content
SEND FEEDBACK

Daily
Averages
Monthly
Summary
United States of America

AUBURN, INDIANA


Home > North America > United States > Indiana
Elevation: 268 meters     Latitude: 41 20N     Longitude: 085 03W

WEATHER
 
SELECT A DAY
Number of Records: 153,225;   Date Range: 2/27/08 - 8/29/14
 
SHARE

PRINT THIS DATA

[ ← Previous Day ]
WEATHER ALMANAC - 13 FEBRUARY, 2013
[ Next Day → ]
[ °F ]   °C
Weather ElementAverageHighLow
Temperature0.5 °C6 °C (4:15 pm)-3 °C (6:35 am)
Dewpoint-4.1 °C-2 °C (5:15 pm)-6 °C (5:15 am)
Humidity72.3 %87 % (10:15 pm)53 % (4:15 pm)
Barometer1009.5 hPa1013.5 hPa (12:55 am)1006.8 hPa (3:15 pm)
Wind Speed4.8 km/h13 km/h (3:55 pm)
Weather ElementAverage
Visibility15.1 km
Wind DirectionSSE (154.4 °)

Weather ElementTotal
Precipitation---
Heating Degree Days16.8 (Base 18.3)
Averaged from 70 records on 13 February, 2013
WEATHER CONDITIONS BREAKOUT
WIND DIRECTION BREAKOUT
WEATHER BY HOUR - 13 FEBRUARY, 2013
[ °F ]   °C
Local TimeTemperatureDewpointHumidityBarometerVisibilityWind DirectionWind SpeedGust SpeedPrecipitationEventsConditions
12:35 AM-1 °C-5 °C75 %1013.2 hPa16.1 kmWNW (290°)9.3 km/hOvercast
12:55 AM-1 °C-5 °C75 %1013.5 hPa16.1 kmNW (320°)7.4 km/hOvercast
1:15 AM-1 °C-5 °C75 %1013.2 hPa16.1 kmNW (320°)11.1 km/hOvercast
1:35 AM-1 °C-5 °C75 %1013.2 hPa16.1 kmNW (320°)9.3 km/hOvercast
1:55 AM-2 °C-5 °C80 %1013.2 hPa16.1 kmCalmOvercast
2:15 AM-1 °C-5 °C75 %1013.2 hPa16.1 kmWest (260°)5.6 km/hOvercast
2:35 AM-1 °C-5 °C75 %1012.9 hPa16.1 kmCalmOvercast
2:55 AM-2 °C-5 °C80 %1012.9 hPa16.1 kmCalmOvercast
3:15 AM-2 °C-5 °C80 %1012.5 hPa16.1 kmNW (320°)5.6 km/hOvercast
3:35 AM-2 °C-5 °C80 %1012.2 hPa16.1 kmCalmOvercast
3:55 AM-2 °C-5 °C80 %1012.2 hPa16.1 kmWNW (290°)5.6 km/hOvercast
4:15 AM-2 °C-5 °C80 %1011.9 hPa16.1 kmWNW (290°)5.6 km/hOvercast
4:35 AM-2 °C-5 °C80 %1011.9 hPa16.1 kmCalmOvercast
4:55 AM-2 °C-5 °C80 %1011.5 hPa16.1 kmCalmOvercast
5:15 AM-2 °C-6 °C74 %1011.5 hPa16.1 kmNNW (340°)5.6 km/hOvercast
5:35 AM-2 °C-6 °C74 %1011.5 hPa16.1 kmCalmOvercast
5:55 AM-2 °C-6 °C74 %1011.5 hPa16.1 kmWNW (290°)7.4 km/hOvercast
6:15 AM-2 °C-6 °C74 %1011.2 hPa16.1 kmCalmOvercast
6:35 AM-3 °C-6 °C80 %1010.8 hPa16.1 kmCalmOvercast
6:55 AM-2 °C-6 °C74 %1010.5 hPa11.3 kmCalmOvercast
7:15 AM-3 °C-6 °C80 %1010.2 hPa11.3 kmCalmOvercast
7:35 AM-3 °C-6 °C80 %1010.2 hPa11.3 kmCalmOvercast
7:55 AM-3 °C-6 °C80 %1010.2 hPa11.3 kmCalmOvercast
8:15 AM-3 °C-6 °C80 %1010.2 hPa8 kmCalmHaze
8:35 AM-3 °C-5 °C86 %1010.2 hPa8 kmCalmOvercast
8:55 AM-2 °C-6 °C74 %1009.5 hPa11.3 kmCalmMostly Cloudy
9:15 AM-2 °C-5 °C80 %1009.8 hPa11.3 kmCalmScattered Clouds
9:35 AM-1 °C-5 °C75 %1010.5 hPa11.3 kmCalmClear
9:55 AM-1 °C-5 °C75 %1010.8 hPa11.3 kmSSW (200°)7.4 km/hMostly Cloudy
10:15 AM-1 °C-5 °C75 %1010.5 hPa11.3 kmSouth (180°)5.6 km/hMostly Cloudy
10:35 AM-1 °C-5 °C75 %1010.5 hPa11.3 kmSSW (210°)5.6 km/hMostly Cloudy
10:55 AM0 °C-5 °C69 %1010.5 hPa16.1 kmSouth (190°)5.6 km/hScattered Clouds
11:15 AM0 °C-5 °C69 %1010.2 hPa16.1 kmCalmClear
11:35 AM0 °C-5 °C69 %1009.8 hPa16.1 kmCalmClear
11:55 AM1 °C-5 °C65 %1009.8 hPa16.1 kmWNW (300°)7.4 km/hClear
12:15 PM2 °C-4 °C65 %1009.5 hPa16.1 kmWest (280°)7.4 km/hClear
12:35 PM2 °C-5 °C60 %1009.1 hPa16.1 kmWest (280°)11.1 km/hClear
12:55 PM2 °C-4 °C65 %1008.8 hPa16.1 kmWest (260°)7.4 km/hClear
1:15 PM3 °C-4 °C60 %1008.5 hPa16.1 kmSW (230°)7.4 km/hClear
1:55 PM4 °C-3 °C61 %1008.1 hPa16.1 kmWest (270°)9.3 km/hClear
2:15 PM5 °C-3 °C57 %1007.8 hPa16.1 kmWest (260°)11.1 km/hClear
2:35 PM5 °C-3 °C57 %1007.5 hPa16.1 kmWSW (250°)9.3 km/hClear
2:55 PM5 °C-3 °C57 %1007.1 hPa16.1 kmWNW (290°)11.1 km/hClear
3:15 PM5 °C-3 °C57 %1006.8 hPa16.1 kmSW (220°)7.4 km/hClear
3:35 PM5 °C-3 °C57 %1006.8 hPa16.1 kmWest (270°)7.4 km/hClear
3:55 PM5 °C-3 °C57 %1006.8 hPa16.1 kmWest (260°)13 km/hClear
4:15 PM6 °C-3 °C53 %1006.8 hPa16.1 kmSW (230°)7.4 km/hClear
4:35 PM6 °C-3 °C53 %1006.8 hPa16.1 kmWest (260°)11.1 km/hClear
4:55 PM5 °C-3 °C57 %1006.8 hPa16.1 kmWest (270°)9.3 km/hClear
5:15 PM5 °C-2 °C61 %1007.1 hPa16.1 kmWest (260°)9.3 km/hClear
5:35 PM5 °C-3 °C57 %1007.1 hPa16.1 kmSW (230°)7.4 km/hClear
5:55 PM4 °C-3 °C61 %1007.1 hPa16.1 kmWSW (240°)5.6 km/hClear
6:15 PM4 °C-3 °C61 %1007.5 hPa16.1 kmSSW (210°)5.6 km/hClear
6:35 PM3 °C-3 °C65 %1007.8 hPa16.1 kmCalmClear
6:55 PM2 °C-3 °C70 %1007.8 hPa16.1 kmSouth (190°)5.6 km/hClear
7:15 PM2 °C-3 °C70 %1008.1 hPa16.1 kmCalmClear
7:35 PM2 °C-3 °C70 %1008.1 hPa16.1 kmCalmClear
7:55 PM2 °C-2 °C75 %1008.5 hPa16.1 kmSSW (200°)5.6 km/hClear
8:15 PM1 °C-3 °C75 %1008.5 hPa16.1 kmSouth (190°)5.6 km/hClear
8:35 PM0 °C-3 °C80 %1008.5 hPa16.1 kmCalmClear
8:55 PM0 °C-3 °C80 %1008.5 hPa16.1 kmSouth (190°)5.6 km/hClear
9:15 PM0 °C-3 °C80 %1008.5 hPa16.1 kmCalmClear
9:35 PM0 °C-3 °C80 %1008.5 hPa16.1 kmCalmClear
9:55 PM1 °C-3 °C75 %1008.5 hPa16.1 kmSSW (200°)7.4 km/hClear
10:15 PM0 °C-2 °C87 %1008.5 hPa16.1 kmSouth (190°)7.4 km/hClear
10:35 PM0 °C-2 °C87 %1008.5 hPa16.1 kmSSW (200°)7.4 km/hClear
10:55 PM0 °C-2 °C87 %1008.5 hPa16.1 kmSouth (190°)7.4 km/hClear
11:15 PM0 °C-2 °C87 %1008.5 hPa16.1 kmSouth (190°)7.4 km/hClear
11:35 PM0 °C-2 °C87 %1008.5 hPa16.1 kmSouth (190°)7.4 km/hClear
11:55 PM1 °C-2 °C81 %1008.5 hPa16.1 kmSouth (190°)9.3 km/hClear
Hourly data recorded from KGWB, located 0 kilometers away from Auburn, Indiana







STORIES FROM OUR PARTNERS